This is the latest recevied weather packets stored in our database for station/object DH5WR-10. If no packets are shown the sender has not sent any weather packets the latest 10 day(s).
| Time | Temp. | Humidity | Pressure | Rain* | Wind** | Luminosity | Snow |
|---|---|---|---|---|---|---|---|
| 1777576041 | 10° C | 32% | 1026 hPa | - | - | - | - |
| 1777575141 | 10.56° C | 30% | 1025.8 hPa | - | - | - | - |
| 1777574241 | 10.56° C | 30% | 1025.7 hPa | - | - | - | - |
| 1777573341 | 11.11° C | 29% | 1025.6 hPa | - | - | - | - |
| 1777572441 | 11.67° C | 27% | 1025.4 hPa | - | - | - | - |
| 1777571541 | 12.22° C | 26% | 1025.4 hPa | - | - | - | - |
| 1777570640 | 12.22° C | 25% | 1025.4 hPa | - | - | - | - |
| 1777569740 | 12.78° C | 25% | 1025.4 hPa | - | - | - | - |
| 1777568840 | 12.78° C | 23% | 1025.3 hPa | - | - | - | - |
| 1777567940 | 13.33° C | 22% | 1025.3 hPa | - | - | - | - |
| 1777567040 | 13.33° C | 21% | 1025.3 hPa | - | - | - | - |
| 1777566140 | 13.89° C | 23% | 1025.2 hPa | - | - | - | - |
| 1777565240 | 13.89° C | 23% | 1025.1 hPa | - | - | - | - |
| 1777564339 | 13.89° C | 21% | 1025 hPa | - | - | - | - |
| 1777563439 | 13.89° C | 21% | 1025.1 hPa | - | - | - | - |
| 1777562539 | 14.44° C | 22% | 1025 hPa | - | - | - | - |
| 1777561639 | 14.44° C | 22% | 1024.9 hPa | - | - | - | - |
| 1777560739 | 14.44° C | 21% | 1025 hPa | - | - | - | - |
| 1777559839 | 15° C | 22% | 1024.9 hPa | - | - | - | - |
| 1777558939 | 14.44° C | 22% | 1024.9 hPa | - | - | - | - |
| 1777558039 | 13.89° C | 21% | 1025 hPa | - | - | - | - |
| 1777557138 | 14.44° C | 21% | 1025.1 hPa | - | - | - | - |
| 1777556238 | 13.89° C | 21% | 1025.1 hPa | - | - | - | - |
| 1777555338 | 14.44° C | 22% | 1025.2 hPa | - | - | - | - |
| 1777554438 | 13.89° C | 21% | 1025.3 hPa | - | - | - | - |
* Rain since midnight (hover to see other rain measurements)
** Current wind speed in m/s (hover to see current wind gust speed)